This is the latest recevied weather packets stored in our database for station/object KC7RJK-2. If no packets are shown the sender has not sent any weather packets the latest 10 day(s).
| Time | Temp. | Humidity | Pressure | Rain* | Wind** | Luminosity | Snow |
|---|---|---|---|---|---|---|---|
| 1777707011 | 11.11° C | 82% | 1017.1 hPa | 0 mm | - | - | - |
| 1777706410 | 11.67° C | 82% | 1017.2 hPa | 0 mm | - | - | - |
| 1777705810 | 11.67° C | 82% | 1017.2 hPa | 0 mm | - | - | - |
| 1777705210 | 11.67° C | 82% | 1017 hPa | 0 mm | - | - | - |
| 1777704610 | 11.67° C | 82% | 1017.3 hPa | 0 mm | - | - | - |
| 1777704009 | 11.67° C | 82% | 1017.2 hPa | 0 mm | - | - | - |
| 1777703410 | 11.67° C | 82% | 1017.1 hPa | 0 mm | - | - | - |
| 1777702809 | 11.67° C | 81% | 1017.3 hPa | 0 mm | - | - | - |
| 1777702209 | 12.22° C | 81% | 1017.2 hPa | 0 mm | - | - | - |
| 1777701609 | 12.22° C | 80% | 1017.2 hPa | 0 mm | - | - | - |
| 1777701008 | 12.22° C | 80% | 1017 hPa | 0 mm | - | - | - |
| 1777700409 | 12.22° C | 79% | 1016.9 hPa | 0 mm | - | - | - |
| 1777699809 | 12.78° C | 78% | 1016.9 hPa | 0 mm | - | - | - |
| 1777699209 | 12.78° C | 77% | 1016.8 hPa | 0 mm | - | - | - |
| 1777698608 | 13.33° C | 76% | 1016.7 hPa | 0 mm | - | - | - |
| 1777698009 | 13.33° C | 75% | 1016.8 hPa | 0 mm | - | - | - |
| 1777697410 | 13.89° C | 74% | 1016.4 hPa | 0 mm | - | - | - |
| 1777696810 | 13.89° C | 73% | 1016.3 hPa | 0 mm | - | - | - |
| 1777696211 | 14.44° C | 72% | 1016.3 hPa | 0 mm | - | - | - |
| 1777695609 | 14.44° C | 72% | 1016.2 hPa | 0 mm | - | - | - |
| 1777695009 | 14.44° C | 71% | 1016.1 hPa | 0 mm | - | - | - |
| 1777694410 | 15° C | 73% | 1016.1 hPa | 0 mm | - | - | - |
| 1777693809 | 15.56° C | 74% | 1015.9 hPa | 0 mm | - | - | - |
| 1777693209 | 16.11° C | 73% | 1015.8 hPa | 0 mm | - | - | - |
| 1777692612 | 16.67° C | 71% | 1015.5 hPa | 0 mm | - | - | - |
* Rain latest hour (hover to see other rain measurements)
** Current wind speed in m/s (hover to see current wind gust speed)